Darstellungsparameter: Aktuell verwendete Einstellungen:
Skalierung der Graphiken ... ?
xyx+y,   Skalierungsfaktor:      Skalierung: Modus: x, Faktor: 1
Darstellungszeitraum ... ?
Vom - - bis: - -   Zeitraum: 04.10.2010 - 04.10.2010
Min/Max/Avg-Anzeige ... ?
Zeige MMA aktuell
Zeige MMA Monat
Zeige MMA alles
Zeige --A aktuell
Zeige --A Monat
Zeige --A alles
Keine MMA-Anzeige
MMA:
Minimum Maximum Average (ber die Originaldaten)
MMA-Basis: 04.10.2010 - 04.10.2010
Quicknavigation für Darstellung... ?
Tage:      1T, 2T, 3T, 5T -1T -2T -3T -5T +1T +2T +3T +5T
Wochen: 1W, 2W, 3W -1W -2W -3W +1W +2W +3W
Monate: 1M, 3M, 6M -1M -3M -6M +1M +3M +6M
Jahre:    1J, 3J, 5J, 10J -1J -3J -5J -10J +1J +3J +5J +10J
Nutze für die Darstellung ... ?
Originaldaten oder Mittelwerte auf ...
Stundenbasis Tagesbasis Wochenbasis
Monatsbasis Jahresbasis      Datenbasis: Original-Daten
Darstellen als:
Statistik (Auto) Statistik J:M      Darstellung:
Zur Graphik,    zurück zur Übersicht aller Sensoren.
 
Tabellarische Datenbersicht: ?
 
Sensor: Nr:Datum:Temp:Abs-Feuchte:Windchill:Wind:
Aussen-T/F 1 04-10-2010 00:06:07 17.4 C 9.93 g/m*3 17.4 C 0 km/h
2 04-10-2010 00:18:07 17.4 C 9.93 g/m*3 17.4 C 0 km/h
3 04-10-2010 00:30:07 17.2 C 9.81 g/m*3 17.2 C 0 km/h
4 04-10-2010 00:42:07 17.2 C 9.81 g/m*3 17.2 C 0 km/h
5 04-10-2010 00:54:07 17.2 C 9.81 g/m*3 17.2 C 0 km/h
6 04-10-2010 01:06:07 17.2 C 9.81 g/m*3 17.2 C 0 km/h
7 04-10-2010 01:18:07 17.2 C 9.67 g/m*3 17.2 C 0 km/h
8 04-10-2010 01:30:07 17.2 C 9.52 g/m*3 17.2 C 0 km/h
9 04-10-2010 01:42:07 17.2 C 9.52 g/m*3 17.2 C 0 km/h
10 04-10-2010 01:54:07 17.1 C 9.46 g/m*3 17.1 C 0 km/h
11 04-10-2010 02:06:07 17 C 9.55 g/m*3 17 C 0 km/h
12 04-10-2010 02:18:07 16.9 C 9.64 g/m*3 16.9 C 0 km/h
13 04-10-2010 02:30:07 16.8 C 9.72 g/m*3 16.8 C 0 km/h
14 04-10-2010 02:42:07 16.8 C 9.58 g/m*3 16.8 C 0 km/h
15 04-10-2010 02:54:07 16.6 C 9.75 g/m*3 16.6 C 0 km/h
16 04-10-2010 03:06:07 16.4 C 9.77 g/m*3 16.4 C 0 km/h
17 04-10-2010 03:18:07 15.9 C 10.02 g/m*3 15.9 C 0 km/h
18 04-10-2010 03:30:08 15.6 C 9.97 g/m*3 15.6 C 0 km/h
19 04-10-2010 03:42:08 15.5 C 10.05 g/m*3 15.5 C 0 km/h
20 04-10-2010 03:54:08 15.4 C 9.99 g/m*3 15.4 C 0 km/h
21 04-10-2010 04:06:08 15.3 C 9.92 g/m*3 15.3 C 0 km/h
22 04-10-2010 04:18:08 15.2 C 9.99 g/m*3 15.2 C 0 km/h
23 04-10-2010 04:30:08 15.2 C 9.99 g/m*3 15.2 C 0 km/h
24 04-10-2010 04:42:08 15 C 10 g/m*3 15 C 0 km/h
25 04-10-2010 04:54:08 14.8 C 10.01 g/m*3 14.8 C 0 km/h
Sensor: Nr:Datum:Temp:Abs-Feuchte:Windchill:Wind:
Aussen-T/F 26 04-10-2010 05:06:08 14.6 C 10.01 g/m*3 14.6 C 0 km/h
27 04-10-2010 05:18:08 14.4 C 9.89 g/m*3 14.4 C 0 km/h
28 04-10-2010 05:30:08 14.3 C 9.95 g/m*3 14.3 C 0 km/h
29 04-10-2010 05:42:08 14.1 C 9.95 g/m*3 14.1 C 0 km/h
30 04-10-2010 05:54:08 14.1 C 9.95 g/m*3 14.1 C 0 km/h
31 04-10-2010 06:06:08 14.2 C 10.01 g/m*3 14.2 C 0 km/h
32 04-10-2010 06:18:08 13.9 C 10.07 g/m*3 13.9 C 0 km/h
33 04-10-2010 06:30:08 14 C 9.89 g/m*3 14 C 0 km/h
34 04-10-2010 06:42:08 13.8 C 9.89 g/m*3 13.8 C 0 km/h
35 04-10-2010 06:54:08 13.7 C 9.83 g/m*3 13.7 C 0 km/h
36 04-10-2010 07:06:03 13.8 C 10.01 g/m*3 13.8 C 0 km/h
37 04-10-2010 07:18:02 13.7 C 9.83 g/m*3 13.7 C 0 km/h
38 04-10-2010 07:30:02 13.5 C 9.71 g/m*3 13.5 C 0 km/h
39 04-10-2010 07:42:03 13.5 C 9.71 g/m*3 13.5 C 0 km/h
40 04-10-2010 07:54:02 13.6 C 9.89 g/m*3 13.6 C 0 km/h
41 04-10-2010 08:06:02 13.8 C 9.89 g/m*3 13.8 C 0 km/h
42 04-10-2010 08:18:02 14.1 C 9.95 g/m*3 14.1 C 0 km/h
43 04-10-2010 08:30:02 14.3 C 9.83 g/m*3 14.3 C 0 km/h
44 04-10-2010 08:42:03 14.4 C 9.64 g/m*3 14.4 C 0 km/h
45 04-10-2010 08:54:02 14.7 C 9.69 g/m*3 14.7 C 0 km/h
46 04-10-2010 09:06:02 14.9 C 9.56 g/m*3 14.9 C 0 km/h
47 04-10-2010 09:18:02 15 C 9.23 g/m*3 15 C 0 km/h
48 04-10-2010 09:30:02 15 C 9.1 g/m*3 15 C 0 km/h
49 04-10-2010 09:42:02 15 C 9.1 g/m*3 15 C 0 km/h
50 04-10-2010 09:54:02 15.1 C 9.16 g/m*3 15.1 C 0 km/h
Sensor: Nr:Datum:Temp:Abs-Feuchte:Windchill:Wind:
Aussen-T/F 51 04-10-2010 10:06:02 15.2 C 9.09 g/m*3 15.2 C 0 km/h
52 04-10-2010 10:18:02 15.3 C 9.01 g/m*3 15.3 C 0 km/h
53 04-10-2010 10:30:02 15.4 C 9.07 g/m*3 15.4 C 0 km/h
54 04-10-2010 10:42:02 16 C 8.86 g/m*3 16 C 0 km/h
55 04-10-2010 10:54:01 16.4 C 8.79 g/m*3 16.4 C 0 km/h
56 04-10-2010 11:06:02 17.1 C 8.88 g/m*3 17.1 C 0 km/h
57 04-10-2010 11:18:01 17.1 C 8.88 g/m*3 17.1 C 0 km/h
58 04-10-2010 11:30:01 17.6 C 9 g/m*3 17.6 C 0 km/h
59 04-10-2010 11:42:01 18 C 8.91 g/m*3 18 C 0 km/h
60 04-10-2010 11:54:01 18.3 C 8.91 g/m*3 18.3 C 0 km/h
61 04-10-2010 12:06:01 18.5 C 8.86 g/m*3 18.5 C 0 km/h
62 04-10-2010 12:18:02 18 C 8.91 g/m*3 18 C 0 km/h
63 04-10-2010 12:30:02 17.8 C 8.8 g/m*3 17.8 C 0 km/h
64 04-10-2010 12:42:01 17.5 C 8.65 g/m*3 17.5 C 0 km/h
65 04-10-2010 12:54:02 17.4 C 8.6 g/m*3 17.4 C 0 km/h
66 04-10-2010 13:06:01 17.9 C 8.7 g/m*3 17.9 C 0 km/h
67 04-10-2010 13:18:02 18.3 C 8.6 g/m*3 18.3 C 0 km/h
68 04-10-2010 13:30:02 18.9 C 8.59 g/m*3 18.9 C 0 km/h
69 04-10-2010 13:42:01 19.1 C 8.52 g/m*3 19.1 C 0 km/h
70 04-10-2010 13:54:02 19.4 C 8.68 g/m*3 19.4 C 0 km/h
71 04-10-2010 14:06:02 19.3 C 8.63 g/m*3 19.3 C 0 km/h
72 04-10-2010 14:18:02 19.5 C 8.73 g/m*3 19.5 C 0 km/h
73 04-10-2010 14:30:02 19.7 C 8.66 g/m*3 19.7 C 0 km/h
74 04-10-2010 14:42:02 19.9 C 8.59 g/m*3 19.9 C 0 km/h
75 04-10-2010 14:54:02 20.4 C 9.02 g/m*3 20.4 C 0 km/h
Sensor: Nr:Datum:Temp:Abs-Feuchte:Windchill:Wind:
Aussen-T/F 76 04-10-2010 15:06:01 21.2 C 8.9 g/m*3 21.2 C 0 km/h
77 04-10-2010 15:18:02 22.3 C 8.29 g/m*3 22.3 C 0 km/h
78 04-10-2010 15:30:02 22.7 C 8.69 g/m*3 22.7 C 0 km/h
79 04-10-2010 15:42:02 23 C 8.63 g/m*3 23 C 0 km/h
80 04-10-2010 15:54:02 23.3 C 8.57 g/m*3 23.3 C 0 km/h
81 04-10-2010 16:06:02 23.1 C 8.27 g/m*3 23.1 C 0 km/h
82 04-10-2010 16:18:02 23.4 C 8.2 g/m*3 23.4 C 0 km/h
83 04-10-2010 16:30:02 23.9 C 8.44 g/m*3 23.9 C 0 km/h
84 04-10-2010 16:42:02 23.9 C 8 g/m*3 23.9 C 0 km/h
85 04-10-2010 16:54:01 23.9 C 8.22 g/m*3 23.9 C 0 km/h
86 04-10-2010 17:06:02 23.3 C 8.15 g/m*3 23.3 C 0 km/h
87 04-10-2010 17:18:01 22 C 8.54 g/m*3 22 C 0 km/h
88 04-10-2010 17:30:01 20.4 C 9.38 g/m*3 20.4 C 0 km/h
89 04-10-2010 17:42:01 19.5 C 9.73 g/m*3 19.5 C 0 km/h
90 04-10-2010 17:54:01 20.5 C 9.61 g/m*3 20.5 C 0 km/h
91 04-10-2010 18:06:02 20.2 C 9.44 g/m*3 20.2 C 0 km/h
92 04-10-2010 18:18:02 19.5 C 9.57 g/m*3 19.5 C 0 km/h
93 04-10-2010 18:30:02 18.7 C 9.61 g/m*3 18.7 C 0 km/h
94 04-10-2010 18:42:01 17.8 C 9.71 g/m*3 17.8 C 0 km/h
95 04-10-2010 18:54:01 17.2 C 9.81 g/m*3 17.2 C 0 km/h
96 04-10-2010 19:06:01 16.9 C 10.07 g/m*3 16.9 C 0 km/h
97 04-10-2010 19:18:02 16.8 C 10.15 g/m*3 16.8 C 0 km/h
98 04-10-2010 19:30:02 16.5 C 10.11 g/m*3 16.5 C 0 km/h
99 04-10-2010 19:42:01 16.2 C 10.07 g/m*3 16.2 C 0 km/h
100 04-10-2010 19:54:03 16.2 C 10.07 g/m*3 16.2 C 0 km/h
Sensor: Nr:Datum:Temp:Abs-Feuchte:Windchill:Wind:
Aussen-T/F 101 04-10-2010 20:06:02 16.4 C 10.19 g/m*3 16.4 C 0 km/h
102 04-10-2010 20:18:02 16.5 C 10.11 g/m*3 16.5 C 0 km/h
103 04-10-2010 20:30:03 16.4 C 10.05 g/m*3 16.4 C 0 km/h
104 04-10-2010 20:42:02 16.1 C 9.87 g/m*3 16.1 C 0 km/h
105 04-10-2010 20:54:02 15.7 C 9.9 g/m*3 15.7 C 0 km/h
106 04-10-2010 21:06:01 15.6 C 9.97 g/m*3 15.6 C 0 km/h
107 04-10-2010 21:18:02 15.5 C 10.05 g/m*3 15.5 C 0 km/h
108 04-10-2010 21:30:02 15.6 C 9.97 g/m*3 15.6 C 0 km/h
109 04-10-2010 21:42:02 15.4 C 9.85 g/m*3 15.4 C 0 km/h
110 04-10-2010 21:54:01 15 C 9.87 g/m*3 15 C 0 km/h
111 04-10-2010 22:06:02 14.8 C 9.88 g/m*3 14.8 C 0 km/h
112 04-10-2010 22:19:04 14.7 C 9.95 g/m*3 14.7 C 0 km/h
113 04-10-2010 22:31:04 14.5 C 9.95 g/m*3 14.5 C 0 km/h
114 04-10-2010 22:43:04 14.5 C 9.95 g/m*3 14.5 C 0 km/h
115 04-10-2010 22:55:04 14.3 C 9.83 g/m*3 14.3 C 0 km/h
116 04-10-2010 23:07:04 14.2 C 9.89 g/m*3 14.2 C 0 km/h
117 04-10-2010 23:19:04 14.2 C 9.89 g/m*3 14.2 C 0 km/h
118 04-10-2010 23:31:04 14.3 C 9.95 g/m*3 14.3 C 0 km/h
119 04-10-2010 23:43:05 14.2 C 9.89 g/m*3 14.2 C 0 km/h
120 04-10-2010 23:55:05 14.1 C 9.95 g/m*3 14.1 C 0 km/h

Legende:
   Min
   Max


Maximal/Minimal-Werte vom 04.10.2010 - 04.10.2010

Sensor Min Max Avg
Temp
(Aussen-T/F)
13.5 °C
04-10-2010  07:30:02
23.9 °C
04-10-2010  16:30:02
16.91 °C
Abs-Feuchte
(Aussen-T/F)
8 g/m*3
04-10-2010  16:42:02
10.19 g/m*3
04-10-2010  20:06:02
9.39 g/m*3
Windchill
(Aussen-T/F)
13.5 C
04-10-2010  07:30:02
23.9 C
04-10-2010  16:30:02
16.77 C

Die Daten stammen von einer Davis Vantage Pro 2 Wetter-Station und werden unter Linux mit der Software wview2wettercgi und aufbereitet. Alle Angaben erfolgen ohne Gewähr für ihre Vollständigkeit oder Richtigkeit.
Kontakt: Rainer Krienke krienke@uni-koblenz.de . Meine Webseiten an der Uni Koblenz oder privat.
Version: $Revision: 0.78 $